Flag for Germany Weather past 2 weeks in Gerolstein, Rhineland-Palatinate, Germany

Now
55 °F

Overcast.


Feels Like: 53 °F
Forecast: 39 / 51 °F
Wind: 6 mph from Southwest

Location: Nuerburg-Barweiler

Current Time: Apr 26, 2015 at 11:58:51 AM

Latest Report: Apr 26, 2015 at 10:00 AM


Visibility: 28 mi

Pressure: 29.76 "Hg

Humidity: 76%

Dew point: 47 °F

Location of GerolsteinLocation

Historic Weather in Gerolstein — Graph

°F

Gerolstein temperature yesterday

Maximum temperature yesterday: 56 °F (at 1:00 PM)
Minimum temperature yesterday: 51 °F (at 10:00 PM)
Average temperature yesterday: 54 °F

Past Weeks' High & Low Weather Summary

 TemperatureHumidityPressure
High73 °F (Apr 15, 4:00 PM)95% (Apr 23, 6:00 AM)30.49 "Hg (Apr 23, 6:00 AM)
Low32 °F (Apr 19, 7:00 AM)25% (Apr 20, 3:00 PM)29.76 "Hg (Apr 26, 10:00 AM)
Average50 °F62%30.17 "Hg
* Reported Apr 11 10:00 AM — Apr 26 10:00 AM, Gerolstein, Weather by CustomWeather, © 2015

Note: Actual official high and low records may vary slightly from our data, if they occured in-between our weather recording intervals... More about our weather records

Advertising

Gerolstein weather history for previous 24 hours

 ConditionsComfort  
Time TempWeatherWind HumidityBarometerVisibility
10:00 AM
Sun, Apr 26
55 °FOvercast.6 mph76%29.76 "Hg28 mi
9:00 AM52 °FOvercast.6 mph86%29.78 "Hg25 mi
8:00 AM51 °FScattered clouds.5 mph89%29.78 "Hg17 mi
7:00 AM51 °FLow clouds.5 mph90%29.77 "Hg12 mi
6:00 AM50 °FOvercast.5 mph91%29.77 "Hg12 mi
4:00 AM50 °FOvercast.5 mph92%29.78 "Hg6 mi
3:00 AM51 °FLow clouds.5 mph93%29.79 "Hg5 mi
2:00 AM50 °FLow clouds.2 mph94%29.81 "Hg4 mi
1:00 AM50 °FFog.3 mph91%29.82 "Hg4 mi
12:00 AM49 °FFog.2 mph93%29.82 "Hg4 mi
10:00 PM
Sat, Apr 25
51 °FOvercast.2 mph88%29.82 "Hg17 mi
9:00 PM52 °FOvercast.3 mph87%29.80 "Hg34 mi
8:00 PM54 °FOvercast.3 mph84%29.78 "Hg34 mi
7:00 PM55 °FOvercast.3 mph80%29.78 "Hg31 mi
6:00 PM54 °FOvercast.5 mph82%29.78 "Hg17 mi
4:00 PM53 °FSprinkles. Low clouds.6 mph90%29.79 "Hg19 mi
3:00 PM53 °FSprinkles. Low clouds.7 mph85%29.79 "Hg18 mi
2:00 PM56 °FOvercast.6 mph73%29.78 "Hg12 mi
1:00 PM56 °FOvercast.7 mph72%29.78 "Hg17 mi
12:00 PM55 °FOvercast.6 mph77%29.79 "Hg16 mi
Weather by CustomWeather, © 2015

See weather overviewHow to use our weather pages